www.pogodaiklimat.ru

Погода и климат >> Архив погоды >> Германия >> Потсдам


ПОГОДА в Потсдаме

  • Прогноз погоды в Потсдаме
  • Монитор погоды в Потсдаме

АРХИВ ПОГОДЫ в Потсдаме

Время (UTC), дата Ветер
(напр.,м/с)
 
Видим.   Явления Облачность Т
(С)
Тd
(С)
f
(%)
Тe
(С)
Тes
(С)
Комфортность P
(гПа)
Po
(гПа)
Тmin
(С)
Tmax
(С)
R
(мм)
R24
(мм)
S
(см)
19 10.06 СВ 2 35 км 9/3 1500 м
[Cu med, cong Ac trans Ci sp]
+24.6 +16.5 61 +28 +28 душно 1010.2 998.8
20 10.06 СВ 3 30 км 10/3 1500 м
[Sc Ac trans Cs]
+23.3 +17.0 68 +28 +28 душно 1010.5 999.1
21 10.06 СВ 3 30 км гроза, ливневой дождь 10/1 1500 м
[Cb cap Ac As]
+23.0 +17.4 71 +28 +28 душно 1010.1 998.7 0.0
22 10.06 СВ 4 30 км гроза, ливневой дождь 10/4 1500 м
[Cb cap Ac As]
+20.7 +19.2 91 +25 +25 комфорт 1009.4 997.9
23 10.06 В 4 20 км гроза, ливневой дождь 10/3 1500 м
[Cb cap Ac As]
+20.3 +19.7 96 +24 +24 комфорт 1009.1 997.6
00 11.06 ЮЗ 2 18 км слаб. ливневой дождь, в посл. час гроза 10/8 300 м
[Cu med, cong Ac As]
+20.2 +19.6 96 +25 +25 комфорт 1010.0 998.5 2
01 11.06 Ю 5 18 км в посл. час дождь 10/4 2000 м
[Sc Ac As]
+19.1 +18.5 96 +21 +21 комфорт 1009.6 998.0
02 11.06 Ю 4 18 км 10/0
[Ac trans Cs]
+18.0 +17.5 97 +18 +18 1009.3 997.7
03 11.06 Ю 4 18 км {дождь} 10/0
[Cs]
+17.2 +16.6 96 +17 +17 1008.9 997.2 0.4
04 11.06 Ю 2 16 км 10/0
[Cs]
+16.7 +16.3 97 +17 +17 1009.3 997.6
05 11.06 В 2 18 км 9/0
[Cs]
+17.7 +17.0 96 +18 +20 1009.2 997.6
06 11.06 ЮВ 3 29 км {дождь} 5/0
[Ci fib]
+18.9 +17.2 90 +20 +24 1009.5 997.9 +16.7 +26.0 3
07 11.06 В 3 35 км 6/1 600 м
[Cu hum Ac und Ci]
+21.2 +17.1 77 +25 +29 комфорт 1009.4 997.9
08 11.06 Ю 3 40 км 8/1 500 м
[Cu hum Ac trans Ci]
+22.9 +17.5 72 +28 +33 душно 1009.6 998.2
09 11.06 Ю 3 35 км 10/1 600 м
[Cu hum Ac trans Cs]
+23.7 +16.9 66 +27 +33 жарко 1009.7 998.3
10 11.06 Ю 2 35 км 6/4 800 м
[Cu Sc Ci fib]
+25.5 +17.5 61 +30 +39 душно 1009.3 998.0
11 11.06 Ю 4 35 км 6/5 900 м
[Cu med, cong Ci fib]
+27.1 +17.2 55 +31 +37 душно 1009.3 998.0
12 11.06 Ю 3 35 км 8/6 1050 м
[Cu med, cong Ci fib]
+27.5 +17.0 53 +31 +36 душно 1009.6 998.3
13 11.06 Ю 1 30 км 8/6 1140 м
[Cu med, cong Ci fib]
+29.1 +17.7 50 +33 +39 очень
душно
1009.5 998.3
14 11.06 ЮЗ 1 29 км 6/4 1230 м
[Cu med, cong Ci]
+28.1 +16.4 49 +32 +39 душно 1009.4 998.2
15 11.06 В 2 29 км 6/3 1380 м
[Cu med, cong Ci]
+28.5 +16.4 48 +32 +37 душно 1009.4 998.2
16 11.06 СЗ 1 35 км 6/3 1410 м
[Cu med, cong Ci fib]
+29.3 +15.8 44 +32 +36 душно 1009.3 998.1
17 11.06 СЗ 3 35 км 6/3 1470 м
[Cu Sc Ci fib]
+28.4 +16.8 49 +32 +33 душно 1008.9 997.7
18 11.06 СЗ 4 28 км 6/3 1500 м
[Cu med, cong Ci fib]
+26.5 +18.1 60 +31 +31 душно 1009.3 998.0 +18.8 +29.8
19 11.06 С 4 28 км гроза, ливневой дождь 9/4 870 м
[Cb cap Ci fib]
+25.4 +18.7 66 +30 +30 душно 1008.6 997.3
20 11.06 СЗ 3 16 км гроза, ливневой дождь 10/9 600 м
[Cb cap]
+22.1 +19.7 86 +28 +28 душно 1009.7 998.2
21 11.06 Ю 3 1000 м сильн. гроза, ливневой дождь 10/9 150 м
[Cb cap]
+18.4 +17.7 96 +19 +19 1011.6 1000.0 30
22 11.06 Ю 13 15 км гроза, ливневой дождь 10/9 540 м
[Cb cap]
+16.6 +16.2 97 +14 +14 1012.1 1000.4
23 11.06 В 2 15 км гроза, ливневой дождь 10/6 600 м
[Cb cap Ac As]
+16.9 +16.7 99 +17 +17 1010.5 998.8
00 12.06 ЮЗ 9 15 км гроза, ливневой дождь 10/10 300 м
[Cb cap]
+16.9 +16.7 99 +15 +15 1009.1 997.4 73
01 12.06 СЗ 4 20 км в посл. час гроза {ливн. осадки} 10/9 1500 м
[Sc]
+16.9 +16.7 99 +16 +16 1009.3 997.6
02 12.06 С 4 25 км 10/10 1500 м
[Sc]
+17.1 +16.9 99 +17 +17 1008.9 997.2
03 12.06 СЗ 2 25 км {гроза, ливн. осадки} 10/9 1500 м
[Sc]
+17.0 +16.7 98 +17 +17 1009.2 997.5 7
04 12.06 СВ 2 25 км 9/3 480 м
[Cu Sc Cs]
+16.8 +16.5 98 +17 +17 1008.9 997.2
05 12.06 В 2 28 км 9/0
[As trans Cs]
+17.9 +17.4 97 +18 +20 1008.9 997.3
06 12.06 В 4 28 км {гроза, ливн. осадки} 9/1 300 м
[Cu hum Cs]
+19.0 +17.5 91 +20 +23 1008.5 996.9 +16.4 +26.6 80
07 12.06 В 3 35 км 9/1 600 м
[Cu hum Ac und Cs]
+21.1 +17.6 80 +25 +28 комфорт 1008.0 996.5
08 12.06 В 4 40 км 9/0
[Cs]
+23.3 +18.1 73 +29 +35 душно 1007.5 996.1
09 12.06 В 2 35 км 8/1 600 м
[Cu hum Cs]
+24.7 +17.5 64 +29 +39 душно 1007.5 996.2
10 12.06 В 2 35 км 5/1 840 м
[Cu hum Ci fib]
+27.0 +19.4 63 +33 +46 очень
душно
1006.8 995.6
11 12.06 ЮВ 2 30 км 5/4 1000 м
[Cu med, cong Ci fib]
+28.4 +18.5 55 +33 +43 очень
душно
1006.4 995.2
12 12.06 В 3 30 км 4/1 1110 м
[Cu med, cong Ac cast Ci fib]
+29.8 +17.8 49 +34 +45 очень
душно
1005.9 994.8
13 12.06 ЮВ 4 35 км 3/1 1110 м
[Cu hum Ac trans Ci fib]
+31.4 +16.8 42 +35 +43 очень
душно
1005.2 994.1
14 12.06 В 3 35 км 3/1 1500 м
[Cu hum Ac trans Ci fib]
+32.5 +16.2 38 +35 +43 душно 1004.3 993.3
15 12.06 ЮВ 3 35 км 9/3 1500 м
[Cb calv Ac und Cs]
+31.6 +16.9 41 +35 +38 очень
душно
1003.9 992.8
16 12.06 З 14 30 км в посл. час ливневой дождь 9/3 930 м
[Cb calv Ac As Cs]
+24.3 +19.1 73 +29 +29 душно 1006.0 994.7
17 12.06 З 6 20 км гроза, ливневой дождь 10/4 300 м
[Cb cap Ac As]
+18.2 +17.2 94 +18 +18 1009.5 997.9
18 12.06 З 5 24 км в посл. час гроза {ливн. осадки} 9/5 1500 м
[Cb cap Ac As]
+17.3 +15.7 90 +17 +17 1008.4 996.8 +17.1 +33.4 6
19 12.06 З 4 25 км слаб. ливневой дождь 9/9 1500 м
[Cu Sc]
+16.9 +16.1 95 +16 +16 1009.3 997.6
20 12.06 З 4 20 км в посл. час гроза {ливн. осадки} 9/9 1300 м
[Cb cap]
+16.8 +16.2 96 +16 +16 1011.0 999.3
21 12.06 З 2 26 км в посл. час ливневой дождь {гроза} 8/5 1500 м
[Cu Sc Ac trans Ci fib]
+16.7 +16.2 97 +17 +17 1011.3 999.6 1
22 12.06 ЮЗ 3 28 км 9/5 660 м
[Sc Ac und]
+16.7 +16.2 97 +16 +16 1011.9 1000.2
23 12.06 З 4 26 км в посл. час дождь 8/4 600 м
[Sc Ac trans Ci fib]
+16.6 +16.2 97 +16 +16 1012.5 1000.8
00 13.06 З 6 30 км {гроза, ливн. осадки} 9/1 600 м
[Sc Ac und]
+15.7 +15.2 97 +14 +14 1012.8 1001.0 1
01 13.06 З 2 30 км 8/0
[Ac trans]
+15.1 +13.7 91 +15 +15 1013.2 1001.4
02 13.06 З 3 30 км 8/0
[Ac As]
+14.6 +14.1 97 +14 +14 1013.1 1001.3
03 13.06 З 3 35 км 9/0
[Ac und]
+14.9 +14.4 97 +14 +14 1013.5 1001.7
04 13.06 З 3 40 км осадки на расстоянии 9/0
[Ac As]
+15.0 +14.4 96 +14 +14 1014.2 1002.4
05 13.06 ЮЗ 3 45 км 9/0
[Ac As]
+15.2 +14.7 97 +14 +15 1014.3 1002.5
06 13.06 Ю 3 40 км в посл. час дождь 9/0
[Ac As]
+15.9 +14.9 94 +15 +17 1015.6 1003.8 +14.6 +17.3 1
07 13.06 ЮЗ 1 40 км 9/0
[Ac As]
+16.4 +14.5 89 +17 +20 1015.2 1003.4
08 13.06 ЮВ 1 45 км 8/1 480 м
[Cu hum Ac As]
+18.4 +14.1 76 +20 +25 1015.5 1003.8
09 13.06 Ю 1 45 км 6/1 600 м
[Cu hum Ac trans Ci fib]
+20.6 +12.8 61 +24 +35 комфорт 1015.3 1003.7
10 13.06 ЮВ 2 45 км 3/1 1140 м
[Cu hum Ac trans Ci fib]
+21.1 +10.1 49 +23 +35 комфорт 1015.0 1003.4
11 13.06 ЮВ 2 45 км 1/1 1230 м
[Cu hum Ac trans Ci fib]
+22.8 +10.4 45 +25 +40 комфорт 1014.9 1003.4
12 13.06 Ю 2 45 км 1/1 1350 м
[Cu hum Ac trans Ci fib]
+23.3 +10.6 45 +25 +40 комфорт 1014.8 1003.3
13 13.06 В 3 45 км 3/1 1470 м
[Cu hum Ac und]
+24.1 +11.4 45 +26 +35 жарко 1014.5 1003.0
14 13.06 ЮВ 2 45 км 3/1 1500 м
[Cu hum Ac trans]
+24.3 +11.9 46 +26 +35 жарко 1014.6 1003.1
15 13.06 В 3 45 км 3/1 1500 м
[Cu med, cong Ac trans Ci sp]
+24.1 +11.7 46 +26 +31 жарко 1014.1 1002.6
16 13.06 В 3 45 км 3/1 1500 м
[Cu med, cong Ac trans Ci fib]
+25.0 +12.1 45 +27 +30 жарко 1013.9 1002.5
17 13.06 ЮВ 2 45 км 4/1 1500 м
[Cu med, cong Ac As]
+25.1 +11.3 42 +26 +28 жарко 1013.8 1002.4
18 13.06 В 3 45 км 4/3 2000 м
[Cu med, cong Ac trans]
+22.9 +11.8 50 +25 +26 комфорт 1013.8 1002.3 +15.8 +25.8
19 13.06 В 3 40 км 3/1 2000 м
[Cu med, cong Ac trans]
+20.9 +12.8 60 +24 +24 комфорт 1014.3 1002.7
20 13.06 ЮВ 4 35 км осадки на расстоянии 3/1 1500 м
[Cu med, cong Ac lent Ci sp]
+19.3 +12.1 63 +20 +20 1015.0 1003.3
21 13.06 ЮВ 3 45 км зарница 5/1 1500 м
[Cb cap Ac und]
+18.9 +11.9 64 +20 +20 1015.8 1004.1
22 13.06 З 2 45 км зарница 4/3 1500 м
[Cb cap Ac trans]
+17.8 +11.8 68 +18 +18 1016.5 1004.8
23 13.06 С 3 45 км 5/4 1500 м
[Cu med, cong Ac trans]
+17.6 +12.1 70 +18 +18 1017.1 1005.3
00 14.06 С 3 45 км 3/3 1500 м
[Cu med, cong Ac trans]
+16.7 +12.0 74 +16 +16 1017.2 1005.4
01 14.06 СВ 3 45 км 3/1 1500 м
[Cu hum Ac trans]
+15.7 +11.7 77 +15 +15 1017.4 1005.6
02 14.06 СВ 4 40 км 1/1 1200 м
[Cu hum Ac trans]
+15.3 +11.6 79 +14 +14 1017.6 1005.7
03 14.06 В 4 35 км 1/1 1200 м
[Cu hum]
+15.1 +11.0 76 +14 +14 1017.9 1006.0
04 14.06 В 5-6
{6}
45 км ясно +15.0 +11.6 80 +14 +14 1018.2 1006.3
05 14.06 В 4-6
{6}
40 км ясно +15.8 +12.4 80 +15 +16 1018.4 1006.6
06 14.06 ЮВ 4 45 км ясно +17.9 +13.2 74 +18 +21 1018.9 1007.1 +14.6 +22.9
07 14.06 ЮВ 3-5
{6}
45 км ясно +21.5 +13.7 61 +24 +30 комфорт 1018.9 1007.3
08 14.06 ЮВ 3 45 км 1/0
[Ci fib]
+23.8 +12.6 49 +26 +34 жарко 1018.9 1007.4
09 14.06 ЮВ 4 45 км 1/0
[Ci fib]
+25.9 +13.7 47 +28 +37 жарко 1018.8 1007.4
10 14.06 ЮВ 4 45 км 3/0
[Ci]
+27.0 +13.0 42 +29 +39 жарко 1018.6 1007.2
11 14.06 ЮВ 4 45 км 4/1 1500 м
[Cu hum Ci sp]
+28.8 +9.7 30 +29 +38 жарко 1018.3 1007.0
12 14.06 В 4 45 км 4/1 1500 м
[Cu Sc Ci sp]
+29.6 +8.8 27 +29 +38 жарко 1017.7 1006.4
13 14.06 В 4 45 км 8/3 1500 м
[Cu Sc Ci]
+29.7 +8.4 26 +29 +35 жарко 1017.3 1006.0
14 14.06 ЮВ 4 45 км 9/1 1500 м
[Cu Sc Cs]
+28.4 +8.7 29 +28 +34 жарко 1017.0 1005.7
15 14.06 ЮВ 3 45 км 9/0
[As trans Cs]
+28.2 +12.7 38 +30 +34 жарко 1016.6 1005.3
16 14.06 ЮВ 3 40 км 9/0
[Ac As Cs]
+27.9 +12.3 38 +29 +32 жарко 1016.0 1004.7
17 14.06 ЮВ 3 40 км 9/0
[Ac cast Cs]
+27.1 +12.2 40 +29 +30 жарко 1015.8 1004.4
18 14.06 В 3 35 км 9/0
[Ac As Cs]
+25.6 +11.4 41 +27 +27 жарко 1015.5 1004.1 +18.0 +30.7
19 14.06 В 4 35 км в посл. час дождь 9/0
[Ac As]
+24.6 +12.7 47 +26 +26 жарко 1015.2 1003.7
20 14.06 В 4 35 км в посл. час дождь 9/4 2000 м
[Sc Ac As]
+23.6 +13.1 52 +26 +26 жарко 1015.3 1003.8
21 14.06 В 4 35 км в посл. час дождь 9/3 1500 м
[Sc Ac As]
+23.0 +13.8 56 +26 +26 жарко 1015.6 1004.1 0.0
22 14.06 В 5 40 км в посл. час дождь 10/0
[Ac trans Cs]
+23.3 +13.8 55 +27 +27 душно 1015.0 1003.5
23 14.06 В 5 40 км 10/0
[Ac und Cs]
+22.3 +14.4 61 +26 +26 жарко 1014.5 1003.0
00 15.06 В 5 40 км {дождь} 10/0
[Ac As]
+22.7 +14.9 61 +26 +26 жарко 1014.0 1002.5 0.0
01 15.06 В 5 40 км 6/0
[Ac trans Cs]
+22.5 +15.6 65 +26 +26 жарко 1013.2 1001.7
02 15.06 В 5 35 км в посл. час дождь 9/3 1500 м
[Sc Ac As]
+22.4 +16.4 69 +27 +27 душно 1012.2 1000.7
03 15.06 В 9 20 км {дождь} 9/3 1500 м
[Cu Sc Ac As Cs]
+22.5 +16.5 69 +27 +27 душно 1010.1 998.6 0.0
04 15.06 В 5 18 км 9/0
[Ac As Cs]
+22.0 +17.1 74 +26 +26 душно 1010.1 998.6
05 15.06 В 5 22 км 8/1 1500 м
[Cu med, cong Ac und Ci fib]
+22.3 +17.8 76 +27 +28 душно 1009.8 998.3
06 15.06 В 8 29 км {дождь} 8/0
[Ac trans]
+23.2 +18.0 73 +29 +29 душно 1008.8 997.4 +21.8 +25.7 0.0
07 15.06 В 5 29 км 9/0
[Ac As]
+25.0 +18.1 66 +29 +31 душно 1009.1 997.8
08 15.06 В 4 28 км в посл. час дождь 6/0
[Ac As]
+26.2 +19.0 65 +31 +36 очень
душно
1008.8 997.5
09 15.06 ЮВ 4 29 км {дождь} 6/0
[Ac trans]
+28.1 +19.1 58 +33 +39 очень
душно
1008.4 997.2 0.0
10 15.06 ЮВ 5 30 км 9/0
[Ac und Ci]
+28.3 +19.2 58 +34 +37 очень
душно
1008.1 996.9
11 15.06 Ю 5 30 км 9/0
[Ac und]
+30.3 +19.1 51 +36 +39 очень
душно
1008.1 997.0
12 15.06 Ю 4 30 км {дождь} 8/1 1300 м
[Cu hum Ac trans]
+30.0 +19.0 52 +35 +41 очень
душно
1008.4 997.3
13 15.06 Ю 5 30 км 9/1 1500 м
[Cu med, cong Ac und]
+30.7 +17.2 44 +34 +37 очень
душно
1008.4 997.3
14 15.06 ЮЗ 6 35 км 3/1 1500 м
[Cb cap Ac trans]
+31.3 +16.8 42 +35 +38 очень
душно
1009.0 997.9
15 15.06 З 7 35 км 6/5 1500 м
[Cb cap Ac trans]
+29.3 +16.2 45 +32 +33 душно 1009.5 998.3
16 15.06 З 8 35 км 4/3 1500 м
[Cu Sc Ci]
+27.1 +15.6 49 +30 +31 душно 1010.2 998.9
17 15.06 З 6 45 км 3/1 1500 м
[Cu med, cong Ci fib]
+26.3 +15.0 50 +29 +30 жарко 1011.1 999.8
18 15.06 З 7 45 км 4/1 1500 м
[Cu hum Ci]
+24.3 +14.0 53 +27 +27 жарко 1011.5 1000.1 +23.3 +31.4 0.0
19 15.06 З 7 45 км 6/1 1500 м
[Cu hum Ac trans Ci]
+23.1 +14.4 58 +27 +27 душно 1012.0 1000.5
20 15.06 З 5 40 км 4/1 2000 м
[Sc Ci fib]
+21.8 +14.6 64 +25 +25 комфорт 1013.0 1001.5
21 15.06 З 7 45 км 4/1 2000 м
[Sc Ci fib]
+20.9 +14.5 67 +24 +24 комфорт 1014.4 1002.8
22 15.06 З 7 45 км 4/0
[Ci fib]
+19.9 +13.3 66 +21 +21 комфорт 1014.8 1003.2
23 15.06 СЗ 5 45 км 4/0
[Ci fib]
+18.7 +11.9 65 +19 +19 1016.1 1004.4
00 16.06 З 5 45 км 4/0
[Ci fib]
+17.3 +11.7 70 +17 +17 1016.2 1004.4
01 16.06 З 5 45 км 4/0
[Ci fib]
+16.4 +12.0 75 +15 +15 1016.2 1004.4
02 16.06 З 5 45 км 4/0
[Ci fib]
+15.6 +12.0 79 +14 +14 1016.1 1004.3
03 16.06 З 5 45 км 6/0
[Ci fib]
+14.8 +12.1 84 +13 +13 1017.0 1005.1
04 16.06 СЗ 5 50 км 8/3 360 м
[Cu hum Ci]
+14.8 +12.2 84 +13 +13 1017.6 1005.7
05 16.06 СЗ 3 45 км 8/3 400 м
[Cu hum Ci sp]
+15.2 +12.1 82 +14 +15 1018.0 1006.1
06 16.06 СЗ 3 45 км 8/1 300 м
[Cu hum Ci sp]
+16.3 +12.3 77 +16 +19 1018.2 1006.4 +14.6 +24.2
07 16.06 З 3 50 км 8/1 420 м
[Cu hum Ac und Ci sp]
+16.7 +12.1 74 +16 +20 1019.1 1007.3
08 16.06 СЗ 3 50 км 6/1 420 м
[Cu hum Ac und Ci fib]
+19.4 +11.8 61 +21 +27 комфорт 1019.2 1007.5
09 16.06 З 4 50 км 8/1 600 м
[Cu hum Ac und Ci fib]
+20.1 +10.7 55 +22 +27 комфорт 1019.7 1008.0
10 16.06 З 4 50 км 9/1 1000 м
[Cu hum Ac und]
+20.1 +10.6 54 +22 +25 комфорт 1020.1 1008.4
11 16.06 З 3 50 км 9/1 1000 м
[Cu hum Ac As]
+19.5 +10.8 57 +21 +26 комфорт 1020.6 1008.9
12 16.06 З 4 45 км в посл. час дождь 10/3 1500 м
[Sc Ac As]
+19.3 +13.0 67 +21 +23 комфорт 1020.6 1008.9 0.0
13 16.06 З 3 50 км в посл. час дождь 10/1 1500 м
[Sc Ac As]
+19.3 +12.1 63 +21 +24 комфорт 1021.1 1009.4
14 16.06 З 3 50 км 9/1 1000 м
[Cu hum Ac As]
+19.2 +12.4 65 +21 +24 комфорт 1021.2 1009.5
15 16.06 З 4 50 км {дождь} 10/1 1000 м
[Cu hum Ac und]
+19.6 +12.9 65 +21 +23 комфорт 1021.2 1009.5 0.0
16 16.06 З 3 50 км 9/1 1000 м
[Cu hum Ac As]
+20.1 +11.7 58 +22 +23 комфорт 1020.8 1009.1
17 16.06 З 3 50 км 8/0
[Ac As]
+20.5 +10.3 52 +22 +23 комфорт 1020.9 1009.2
18 16.06 СЗ 2 50 км {дождь} 8/5 2000 м
[Sc Ac As]
+19.8 +10.7 56 +22 +22 комфорт 1021.1 1009.4 +16.1 +21.0 0.0
19 16.06 З 1 50 км 9/9 2000 м
[Sc]
+19.0 +11.8 63 +21 +21 комфорт 1021.2 1009.5
20 16.06 Ю 2 50 км 9/9 2000 м
[Sc]
+18.3 +11.8 66 +19 +19 1021.6 1009.8
21 16.06 Ю 2 50 км 6/4 2000 м
[Sc Ac trans]
+17.6 +11.1 66 +18 +18 1021.6 1009.8
22 16.06 Ю 2 50 км 6/0
[Ac trans]
+17.1 +10.8 66 +17 +17 1021.5 1009.7
23 16.06 Ю 3 50 км 6/3 1500 м
[Sc Ac trans]
+16.3 +11.2 72 +16 +16 1022.0 1010.1
00 17.06 Ю 3 50 км 9/0
[Ac und]
+17.2 +10.6 65 +17 +17 1022.1 1010.3
01 17.06 Ю 2 50 км 9/5 1500 м
[Sc Ac As]
+16.8 +11.7 72 +17 +17 1022.1 1010.3
02 17.06 ЮЗ 1 50 км 8/5 1410 м
[Sc Ac As]
+16.8 +12.1 74 +18 +18 1021.9 1010.1
03 17.06 Ю 3 45 км 5/3 1380 м
[Sc Ac trans]
+16.4 +12.2 76 +16 +16 1022.0 1010.1
04 17.06 Ю 3 45 км 4/0
[Ac trans]
+15.7 +12.3 80 +15 +15 1022.4 1010.5
05 17.06 Ю 2 45 км 4/0
[Ac trans]
+16.3 +13.0 81 +16 +18 1022.7 1010.8
06 17.06 Ю 1 45 км 3/0
[Ac trans Ci fib]
+18.1 +13.5 74 +19 +24 1022.7 1010.9 +15.2 +19.7
07 17.06 Ю 3 45 км 1/1 700 м
[Cu hum Ac trans]
+20.6 +13.6 64 +23 +29 комфорт 1022.7 1011.0
08 17.06 Ю 1 45 км 3/3 800 м
[Cu hum]
+21.5 +13.2 59 +24 +33 комфорт 1022.6 1010.9
09 17.06 З 1 45 км 4/4 1000 м
[Cu med, cong]
+22.2 +13.2 57 +25 +35 комфорт 1022.3 1010.7
10 17.06 З 2 45 км 4/4 1300 м
[Cu med, cong]
+23.5 +12.3 49 +25 +35 комфорт 1022.0 1010.4
11 17.06 СЗ 2 45 км 4/4 1380 м
[Cu med, cong]
+24.5 +11.8 45 +26 +36 жарко 1021.8 1010.3
12 17.06 З 2 45 км 4/4 1500 м
[Cu med, cong]
+25.7 +11.1 40 +27 +37 жарко 1021.4 1009.9
13 17.06 Ю 2 45 км 4/4 1500 м
[Cu med, cong Ac trans]
+26.1 +11.7 41 +27 +36 жарко 1021.2 1009.7
14 17.06 ЮЗ 1 40 км 5/4 1500 м
[Cu med, cong Ac trans]
+25.7 +10.3 38 +27 +34 жарко 1020.8 1009.3
15 17.06 С 1 45 км 6/5 1500 м
[Cu med, cong Ac trans]
+26.2 +10.2 37 +27 +31 жарко 1020.3 1008.8
17 17.06 ЮВ 1 40 км 6/4 1500 м
[Cu med, cong Ac trans]
+25.2 +12.8 46 +27 +28 жарко 1019.7 1008.2
18 17.06 ЮВ 2 50 км 3/1 1500 м
[Sc diur, vesp Ac trans]
+23.5 +12.9 51 +26 +26 жарко 1019.4 1007.9 +18.0 +27.5

 

Местоположение метеостанции Потсдам (Германия): широта 52.38 долгота 13.07 высота над уровнем моря 100 м.

В архиве по умолчанию представлена погода в Потсдаме за последнюю неделю. Архивные данные за месяц целиком и за предыдущие месяцы, начиная с января 2011 года, Вы можете получить, выбрав интересующий диапазон дат из раскрывающегося списка и нажав кнопку "Ввод!".


*Определитесь, кто Вы:
робот инопланетянин человек

Внимание! Время в таблицах - всемирное. Для получения местного времени необходимо прибавить поправку, которая равна 1 ч.

Смотрите также архив погоды в соседних городах и на ближайших метеорологических станциях:

Погода в Берлин-Далеме (Германия) (19 км)
Погода в Берлине (Германия) (25 км)
Погода в Берлин-Тегеле (Германия) (27 км)
Погода в Берлин-Шёнефельде (Германия) (31 км)
Погода в Баруте (Германия) (47 км)
Погода в Визенбурге (Германия) (50 км)
Погода в Нойруппине (Германия) (60 км)
Погода в Гентине (Германия) (61 км)
Погода в Виттенберге (Германия) (63 км)
Погода на Базе ВВС Holzdorf (Германия) (68 км)

Пояснения к столбцам:

Ветер - указаны скорость ветра в м/с - средняя за 10 мин, порывы в срок и между сроками (в фигурных скобках) и направление, откуда дует ветер: С - северный, СВ - северо-восточный, В - восточный, ЮВ - юго-восточный, Ю - южный, ЮЗ - юго-западный, З - западный, СЗ - северо-западный.
Видимость - горизонтальная дальность видимости в метрах или километрах. При видимости от 1 до 10 км при отсутствии осадков обычно наблюдается дымка, при ухудшении видимости до 1 км и менее - туман. В сухую погоду видимость может ухудшаться дымом, пылью или мглою.
Явления - указаны атмосферные явления, наблюдавшиеся в срок или в последний час перед сроком; фигурными скобками обозначены явления, наблюдавшиеся между сроками (за 1-3 часа до срока); квадратными скобками обозначены град или гололедные отложения с указанием их диаметра в мм.
Облачность - указаны через наклонную черту общая и нижняя облачность в баллах и высота нижней границы облаков в метрах; квадратными скобками обозначены формы облаков: Ci - перистые, Cs - перисто-слоистые, Cc - перисто-кучевые, Ac - высококучевые, As - высокослоистые, Sc - слоисто-кучевые, Ns - слоисто-дождевые, Cu - кучевые, Cb - кучево-дождевые. Подробнее классификацию облаков см. в Атласе облаков (PDF).
T - Температура воздуха - температура, измеренная на высоте 2 м над землей.
Td - Температура точки росы - температура, при понижении до которой содержащийся в воздухе водяной пар достигнет насыщения.
f - Относительная влажность воздуха - влажноcть воздуха, измеренная на высоте 2 м над землей.
Te - Эффективная температура - температура, которую ощущает одетый по сезону человек в тени. Характеристика душности погоды. При расчете учитывается влияние влажности воздуха и скорости ветра на теплоощущения человека.
Tes - Эффективная температура на солнце - температура, которую ощущает человек, с поправкой на солнечный нагрев. Характеристика знойности погоды. Зависит от высоты солнца над горизонтом, облачности и скорости ветра. Ночью, в пасмурную погоду, а также при ветре 12 м/с и более поправка равна нулю.
P - Атмосферное давление - приведенное к уровню моря атмосферное давление.
Po - Атмосферное давление - измеренное на уровне метеостанции атмосферное давление.
Tmin - Минимальная температура - минимум температуры воздуха на высоте 2 м над землей.
Tmax - Максимальная температура - максимум температуры воздуха на высоте 2 м над землей.
R - Количество осадков - Количество выпавших осадков за период времени, мм. При наведении курсора мыши на число - период времени, за который выпало указанное количество осадков.
R24 - Количество осадков - Количество выпавших осадков за 24 часа, мм.
S - Снежный покров - Высота снежного покрова, см. При наведении курсора мыши на число - состояние снежного покрова и степень покрытия местности в баллах.